Location: Gazon
(48.1318°N, 1.2708°W)
Time: 23:23:22
(UTC+00:00)

NOSS 3-2 (A) - Pass Details

Date: 18 September 2020
Orbit: 795 x 1413 km, 63.4° (Epoch: 02 October)

Event Time Altitude Azimuth Distance (km) Brightness Sun altitude
Rises 19:58:58 0° 318° (NW) 3,929 7.9 -18.4°
Reaches altitude 10° 20:01:30 10° 318° (NW) 3,052 7.1 -18.7°
Maximum altitude 20:08:58 87° 231° (SW) 1,279 4.0 -19.9°
Enters shadow 20:13:56 28° 143° (SE) 2,296 4.9 -20.6°
